Leadville, CO

7:28 PM MST on February 25, 2017 (GMT -0700)
Lake County

Weather History for KLXV - March, 2013

Change the Weather History Date:

Tuesday, March 5, 2013

  Actual Average Record
Temperature  
Mean Temperature 16 °F -  
Max Temperature 39 °F 35 °F 59 °F (1987)
Min Temperature -7 °F 8 °F -19 °F (1989)
Degree Days  
Heating Degree Days 49 43  
Month to date heating degree days 216 219  
Since 1 July heating degree days 7758 7929  
Cooling Degree Days 0 0  
Month to date cooling degree days 0 0  
Year to date cooling degree days 0 0  
Moisture  
Dew Point -9 °F    
Average Humidity 46    
Maximum Humidity 79    
Minimum Humidity 12    
Precipitation  
Precipitation 0.00 in 0.03 in 0.25 in (2002)
Month to date precipitation 0.39 0.14  
Year to date precipitation 2.01 1.46  
Sea Level Pressure  
Sea Level Pressure 30.21 in    
Wind  
Wind Speed 7 mph (NNE)    
Max Wind Speed 18 mph    
Max Gust Speed 25 mph    
Visibility 10 miles    
Events      
T = Trace of Precipitation, MM = Missing Value Source: NWS Daily Summary

Daily Weather History Graph

Daily Weather History Graph

Search for Another Location

Airport or City:

Trip Planner

Search our weather history database for the weather conditions in past years. The results will help you decide how hot, cold, wet, or windy it might be!

Date:

Astronomy

Mar. 05, 2013 Rise Set
Actual Time 6:31 AM MST 6:02 PM MST
Civil Twilight 6:04 AM MST 6:29 PM MST
Nautical Twilight 5:33 AM MST 7:00 PM MST
Astronomical Twilight 5:02 AM MST 7:31 PM MST
Moon 1:44 AM MST (3/5) 11:46 AM MST (3/5)
Length of Visible Light 12h 24m
Length of Day
11h 30m
Last Quarter, 40% of the Moon is Illuminated
Mar 5
Last Quarter
Mar 11
New
Mar 19
First Quarter
Mar 27
Full
Apr 2
Last Quarter

Hourly Weather History & Observations

Time (MST) Temp. Windchill Dew Point Humidity Pressure Visibility Wind Dir Wind Speed Gust Speed Precip Events Conditions
12:53 AM -5.1 °F -17.6 °F -11.0 °F 76% 30.20 in 10.0 mi NE 5.8 mph - N/A   Clear
1:53 AM 1.9 °F -13.8 °F -9.9 °F 58% 30.20 in 10.0 mi North 10.4 mph 18.4 mph N/A   Clear
2:53 AM 3.9 °F -9.4 °F -11.0 °F 50% 30.23 in 10.0 mi NE 8.1 mph 17.3 mph N/A   Clear
3:53 AM 8.1 °F -7.7 °F -14.1 °F 36% 30.23 in 10.0 mi NNE 12.7 mph 21.9 mph N/A   Clear
4:53 AM 6.1 °F -7.8 °F -11.9 °F 44% 30.27 in 10.0 mi NE 9.2 mph 18.4 mph N/A   Clear
5:53 AM 5.0 °F -10.8 °F -11.0 °F 48% 30.31 in 10.0 mi NE 11.5 mph 18.4 mph N/A   Clear
6:53 AM 7.0 °F -9.1 °F -11.9 °F 42% 30.35 in 10.0 mi NNE 12.7 mph 20.7 mph N/A   Clear
7:53 AM 12.0 °F -2.0 °F -9.9 °F 37% 30.34 in 10.0 mi NNE 11.5 mph - N/A   Clear
8:53 AM 21.9 °F 13.4 °F -2.9 °F 34% 30.31 in 10.0 mi NE 6.9 mph - N/A   Clear
9:53 AM 28.0 °F 21.7 °F -15.0 °F 15% 30.28 in 10.0 mi NE 5.8 mph - N/A   Clear
10:53 AM 33.1 °F 26.1 °F -15.0 °F 12% 30.24 in 10.0 mi NNW 8.1 mph - N/A   Clear
11:53 AM 35.1 °F 26.4 °F -8.0 °F 16% 30.25 in 10.0 mi WNW 12.7 mph 19.6 mph N/A   Clear
12:53 PM 36.0 °F 29.0 °F -9.9 °F 14% 30.24 in 10.0 mi North 9.2 mph 17.3 mph N/A   Clear
1:53 PM 39.0 °F 34.0 °F -7.1 °F 14% 30.16 in 10.0 mi NNW 6.9 mph - N/A   Clear
2:53 PM 39.0 °F 33.4 °F -5.1 °F 15% 30.14 in 10.0 mi North 8.1 mph - N/A   Clear
3:53 PM 37.9 °F 30.9 °F -5.1 °F 16% 30.12 in 10.0 mi North 10.4 mph - N/A   Clear
4:53 PM 39.0 °F 34.8 °F -7.1 °F 14% 30.11 in 10.0 mi North 5.8 mph - N/A   Clear
5:53 PM 32.0 °F 28.7 °F -2.9 °F 22% 30.16 in 10.0 mi North 3.5 mph - N/A   Clear
6:53 PM 27.0 °F 23.0 °F -4.0 °F 26% 30.19 in 10.0 mi East 3.5 mph - N/A   Clear
7:53 PM 19.0 °F - -4.0 °F 36% 30.20 in 10.0 mi Calm Calm - N/A   Clear
8:53 PM 14.0 °F 6.5 °F -6.0 °F 41% 30.18 in 10.0 mi NNE 4.6 mph - N/A   Clear
9:53 PM 12.9 °F 6.9 °F -9.9 °F 35% 30.14 in 10.0 mi ESE 3.5 mph - N/A   Clear
10:53 PM 17.1 °F 11.7 °F -9.9 °F 30% 30.08 in 10.0 mi NE 3.5 mph - N/A   Clear
11:53 PM 12.0 °F - -6.0 °F 44% 30.10 in 10.0 mi Calm Calm - N/A   Clear